| time (UTC) | temp F | wind direction | speed MPH | gust MPH | rain 1hr in | rain 24hr in | rain mn in | humidity % | barometer mb |
| 20260503010003 | 50 | 55 | 0.0 | 1.0 | 0.01 | 0.01 | 0.01 | 88 | 1011.6 |
| 20260503005403 | 50 | 55 | 0.0 | 1.0 | 0.01 | 0.01 | 0.01 | 88 | 1011.6 |
| 20260503004503 | 50 | 55 | 0.0 | 1.0 | 0.01 | 0.01 | 0.01 | 87 | 1011.8 |
| 20260503003603 | 50 | 55 | 0.0 | 1.0 | 0.01 | 0.01 | 0.01 | 87 | 1011.7 |
| 20260503002916 | 50 | 55 | 0.0 | 1.0 | 0.00 | 0.00 | 0.00 | 87 | 1011.8 |
| 20260503002018 | 50 | 54 | 0.0 | 1.0 | 0.00 | 0.00 | 0.00 | 87 | 1011.4 |
| 20260503000903 | 50 | 54 | 0.0 | 1.0 | 0.00 | 0.00 | 0.00 | 87 | 1011.8 |
| 20260503000003 | 50 | 54 | 0.0 | 1.0 | 0.00 | 0.00 | 0.00 | 87 | 1011.5 |
| 20260502235403 | 50 | 0 | 0.0 | 0.0 | 0.00 | 0.00 | 0.00 | 87 | 1011.7 |
| 20260502234503 | 50 | 0 | 0.0 | 0.0 | 0.00 | 0.00 | 0.00 | 87 | 1011.7 |
| 20260502233603 | 50 | 0 | 0.0 | 0.0 | 0.00 | 0.00 | 0.00 | 88 | 1011.8 |
| 20260502232918 | 50 | 0 | 0.0 | 0.0 | 0.00 | 0.00 | 0.00 | 88 | 1012.0 |
| 20260502231803 | 50 | 0 | 0.0 | 0.0 | 0.00 | 0.00 | 0.00 | 88 | 1012.1 |
| 20260502230903 | 50 | 0 | 0.0 | 0.0 | 0.00 | 0.00 | 0.00 | 88 | 1011.9 |
| 20260502230004 | 50 | 0 | 0.0 | 0.0 | 0.00 | 0.00 | 0.00 | 88 | 1012.1 |
| 20260502225403 | 50 | 0 | 0.0 | 0.0 | 0.00 | 0.00 | 0.00 | 87 | 1012.5 |
| 20260502224717 | 50 | 0 | 0.0 | 0.0 | 0.00 | 0.00 | 0.00 | 87 | 1012.3 |
| 20260502223603 | 50 | 54 | 0.0 | 1.0 | 0.00 | 0.00 | 0.00 | 87 | 1012.1 |
| 20260502222703 | 50 | 0 | 0.0 | 0.0 | 0.00 | 0.00 | 0.00 | 87 | 1012.5 |
| 20260502221803 | 50 | 0 | 0.0 | 0.0 | 0.00 | 0.00 | 0.00 | 87 | 1012.5 |
| 20260502220903 | 50 | 0 | 0.0 | 0.0 | 0.00 | 0.00 | 0.00 | 87 | 1012.6 |
| 20260502220003 | 50 | 0 | 0.0 | 0.0 | 0.00 | 0.00 | 0.00 | 86 | 1012.7 |
| 20260502215403 | 50 | 0 | 0.0 | 0.0 | 0.00 | 0.00 | 0.00 | 86 | 1012.6 |
| 20260502214503 | 51 | 54 | 0.0 | 1.0 | 0.00 | 0.00 | 0.00 | 86 | 1012.6 |
| 20260502213603 | 51 | 54 | 0.0 | 1.0 | 0.00 | 0.00 | 0.00 | 86 | 1012.3 |
| 20260502212703 | 51 | 46 | 0.0 | 2.0 | 0.00 | 0.00 | 0.00 | 86 | 1012.6 |
| 20260502212017 | 51 | 38 | 0.0 | 1.0 | 0.00 | 0.00 | 0.00 | 86 | 1012.6 |
| 20260502210903 | 51 | 18 | 0.0 | 1.0 | 0.00 | 0.00 | 0.00 | 85 | 1012.9 |
| 20260502210004 | 51 | 0 | 0.0 | 0.0 | 0.00 | 0.00 | 0.00 | 85 | 1012.9 |
| 20260502205403 | 51 | 18 | 0.0 | 1.0 | 0.00 | 0.00 | 0.00 | 85 | 1013.0 |
| 20260502204503 | 51 | 17 | 0.0 | 1.0 | 0.00 | 0.00 | 0.00 | 85 | 1013.0 |
| 20260502203603 | 51 | 16 | 0.0 | 1.0 | 0.00 | 0.00 | 0.00 | 85 | 1013.0 |
| 20260502202703 | 51 | 16 | 0.0 | 1.0 | 0.00 | 0.00 | 0.00 | 85 | 1013.0 |
| 20260502201803 | 51 | 13 | 0.0 | 1.0 | 0.00 | 0.00 | 0.00 | 85 | 1013.0 |
| 20260502200903 | 51 | 311 | 0.0 | 2.0 | 0.00 | 0.00 | 0.00 | 84 | 1013.0 |
| 20260502200004 | 52 | 0 | 0.0 | 0.0 | 0.00 | 0.00 | 0.00 | 84 | 1012.9 |
| 20260502195617 | 52 | 0 | 0.0 | 0.0 | 0.00 | 0.00 | 0.00 | 83 | 1013.0 |
| 20260502194718 | 52 | 0 | 0.0 | 0.0 | 0.00 | 0.00 | 0.00 | 83 | 1013.0 |
| 20260502193603 | 52 | 248 | 0.0 | 1.0 | 0.00 | 0.00 | 0.00 | 81 | 1013.0 |
| 20260502192703 | 52 | 248 | 0.0 | 1.0 | 0.00 | 0.00 | 0.00 | 81 | 1013.0 |
| 20260502191803 | 52 | 251 | 0.0 | 1.0 | 0.00 | 0.00 | 0.00 | 81 | 1013.1 |
| 20260502190903 | 52 | 258 | 0.0 | 2.0 | 0.00 | 0.00 | 0.00 | 80 | 1012.9 |
| 20260502190004 | 53 | 263 | 0.0 | 2.0 | 0.00 | 0.00 | 0.00 | 80 | 1012.9 |
| 20260502185403 | 53 | 250 | 0.0 | 2.0 | 0.00 | 0.00 | 0.00 | 79 | 1012.8 |
| 20260502184503 | 53 | 226 | 0.0 | 2.0 | 0.00 | 0.00 | 0.00 | 79 | 1012.9 |
| 20260502183603 | 53 | 224 | 0.0 | 2.0 | 0.00 | 0.00 | 0.00 | 79 | 1012.7 |
| 20260502182703 | 53 | 221 | 0.0 | 1.0 | 0.00 | 0.00 | 0.00 | 78 | 1012.8 |
| 20260502181803 | 53 | 234 | 0.0 | 2.0 | 0.00 | 0.00 | 0.00 | 78 | 1012.9 |
| 20260502180903 | 54 | 228 | 0.0 | 2.0 | 0.00 | 0.00 | 0.00 | 77 | 1013.1 |
| 20260502170218 | 55 | 77 | 0.0 | 3.0 | 0.00 | 0.02 | 0.00 | 75 | 1012.9 |
| 20260502163603 | 56 | 239 | 0.0 | 2.0 | 0.00 | 0.04 | 0.00 | 70 | 1013.4 |
| 20260502162703 | 56 | 270 | 0.0 | 2.0 | 0.00 | 0.04 | 0.00 | 71 | 1013.3 |
| 20260502161803 | 56 | 229 | 0.0 | 2.0 | 0.00 | 0.04 | 0.00 | 71 | 1013.3 |
| 20260502160903 | 56 | 234 | 0.0 | 2.0 | 0.00 | 0.04 | 0.00 | 71 | 1013.4 |
| 20260502151803 | 60 | 241 | 1.0 | 3.0 | 0.00 | 0.04 | 0.00 | 66 | 1014.0 |
| 20260502151118 | 59 | 224 | 1.0 | 3.0 | 0.00 | 0.04 | 0.00 | 67 | 1013.9 |
| 20260502123603 | 58 | 288 | 1.0 | 4.0 | 0.00 | 0.15 | 0.00 | 71 | 1015.2 |
| 20260502122703 | 57 | 285 | 1.0 | 4.0 | 0.00 | 0.15 | 0.00 | 73 | 1015.3 |
| 20260502121803 | 56 | 276 | 1.0 | 3.0 | 0.00 | 0.15 | 0.00 | 74 | 1014.9 |
| 20260502120903 | 56 | 287 | 1.0 | 4.0 | 0.00 | 0.15 | 0.00 | 75 | 1015.5 |
| 20260502115403 | 56 | 274 | 1.0 | 4.0 | 0.00 | 0.15 | 0.00 | 75 | 1015.5 |
| 20260502114503 | 56 | 279 | 2.0 | 3.0 | 0.00 | 0.15 | 0.00 | 76 | 1015.4 |
| 20260502113603 | 56 | 292 | 2.0 | 3.0 | 0.00 | 0.15 | 0.00 | 77 | 1015.4 |
| 20260502112703 | 55 | 278 | 2.0 | 4.0 | 0.00 | 0.15 | 0.00 | 79 | 1015.6 |
| 20260502111803 | 56 | 272 | 2.0 | 6.0 | 0.00 | 0.15 | 0.00 | 78 | 1015.6 |
| 20260502110903 | 56 | 276 | 2.0 | 6.0 | 0.00 | 0.15 | 0.00 | 78 | 1015.4 |
| 20260502110004 | 55 | 282 | 2.0 | 6.0 | 0.00 | 0.15 | 0.00 | 79 | 1015.6 |
| 20260502105403 | 54 | 267 | 2.0 | 6.0 | 0.00 | 0.15 | 0.00 | 81 | 1015.6 |
| 20260502104717 | 54 | 276 | 2.0 | 6.0 | 0.00 | 0.15 | 0.00 | 82 | 1015.7 |
| 20260502103603 | 53 | 287 | 2.0 | 4.0 | 0.00 | 0.15 | 0.00 | 85 | 1015.7 |
| 20260502102917 | 52 | 290 | 1.0 | 4.0 | 0.00 | 0.15 | 0.00 | 86 | 1015.9 |
| 20260502101803 | 51 | 274 | 1.0 | 4.0 | 0.00 | 0.15 | 0.00 | 88 | 1015.6 |
| 20260502100903 | 51 | 285 | 2.0 | 4.0 | 0.00 | 0.15 | 0.00 | 88 | 1015.9 |
| 20260502090903 | 50 | 286 | 1.0 | 4.0 | 0.00 | 0.15 | 0.00 | 92 | 1015.8 |
| 20260502070903 | 50 | 266 | 1.0 | 4.0 | 0.00 | 0.15 | 0.00 | 93 | 1015.3 |
| 20260502070003 | 50 | 275 | 1.0 | 3.0 | 0.00 | 0.15 | 0.00 | 93 | 1015.4 |
| 20260502065403 | 50 | 283 | 1.0 | 3.0 | 0.00 | 0.15 | 0.00 | 93 | 1015.3 |
| 20260502064504 | 50 | 278 | 1.0 | 3.0 | 0.00 | 0.15 | 0.00 | 93 | 1015.4 |
| 20260502063603 | 50 | 292 | 1.0 | 2.0 | 0.00 | 0.15 | 0.00 | 93 | 1015.3 |
| 20260502062703 | 50 | 272 | 1.0 | 3.0 | 0.00 | 0.15 | 0.00 | 93 | 1015.3 |
| 20260502061803 | 50 | 277 | 1.0 | 3.0 | 0.00 | 0.15 | 0.00 | 93 | 1015.5 |
| 20260502060903 | 50 | 281 | 1.0 | 2.0 | 0.00 | 0.15 | 0.00 | 93 | 1015.4 |
| 20260502060004 | 50 | 284 | 1.0 | 3.0 | 0.00 | 0.15 | 0.00 | 93 | 1015.4 |
| 20260502055618 | 50 | 280 | 1.0 | 3.0 | 0.00 | 0.15 | 0.00 | 93 | 1015.3 |
| 20260502054503 | 50 | 282 | 1.0 | 3.0 | 0.00 | 0.15 | 0.00 | 93 | 1015.2 |
| 20260502053603 | 50 | 282 | 1.0 | 3.0 | 0.00 | 0.15 | 0.00 | 93 | 1015.4 |
| 20260502052703 | 50 | 299 | 1.0 | 3.0 | 0.00 | 0.15 | 0.00 | 93 | 1015.6 |
| 20260502052017 | 50 | 287 | 1.0 | 3.0 | 0.00 | 0.15 | 0.00 | 93 | 1015.6 |
| 20260502050903 | 50 | 277 | 1.0 | 4.0 | 0.00 | 0.15 | 0.00 | 93 | 1015.3 |
| 20260502050004 | 50 | 287 | 2.0 | 6.0 | 0.00 | 0.15 | 0.00 | 93 | 1015.7 |
| 20260502045617 | 50 | 284 | 2.0 | 6.0 | 0.00 | 0.15 | 0.00 | 93 | 1015.4 |
| 20260502044504 | 50 | 284 | 1.0 | 4.0 | 0.00 | 0.15 | 0.00 | 93 | 1015.2 |
| 20260502043603 | 50 | 282 | 2.0 | 4.0 | 0.00 | 0.15 | 0.00 | 93 | 1015.3 |
| 20260502042917 | 50 | 284 | 1.0 | 4.0 | 0.00 | 0.15 | 0.00 | 92 | 1015.5 |
| 20260502041803 | 50 | 279 | 1.0 | 4.0 | 0.00 | 0.15 | 0.00 | 92 | 1015.4 |
| 20260502040903 | 50 | 286 | 1.0 | 3.0 | 0.00 | 0.15 | 0.00 | 92 | 1015.5 |
| 20260502040004 | 50 | 272 | 1.0 | 4.0 | 0.00 | 0.15 | 0.00 | 92 | 1015.4 |
| 20260502035403 | 50 | 288 | 1.0 | 4.0 | 0.00 | 0.15 | 0.00 | 92 | 1015.3 |
| 20260502034503 | 50 | 297 | 1.0 | 3.0 | 0.00 | 0.15 | 0.00 | 92 | 1015.4 |
| 20260502033603 | 50 | 284 | 1.0 | 3.0 | 0.00 | 0.15 | 0.00 | 92 | 1015.6 |
| 20260502032703 | 50 | 295 | 1.0 | 4.0 | 0.00 | 0.15 | 0.00 | 92 | 1015.5 |
| 20260502031803 | 50 | 287 | 1.0 | 6.0 | 0.00 | 0.15 | 0.00 | 92 | 1015.6 |
| 20260502030903 | 50 | 295 | 2.0 | 4.0 | 0.00 | 0.15 | 0.00 | 92 | 1015.7 |
| 20260502030003 | 50 | 293 | 1.0 | 3.0 | 0.00 | 0.15 | 0.00 | 92 | 1015.8 |
| 20260502025403 | 50 | 289 | 1.0 | 2.0 | 0.00 | 0.15 | 0.00 | 91 | 1015.7 |
| 20260502024503 | 50 | 284 | 1.0 | 3.0 | 0.00 | 0.15 | 0.00 | 91 | 1015.7 |
| 20260502023603 | 50 | 289 | 1.0 | 4.0 | 0.00 | 0.15 | 0.00 | 91 | 1015.9 |
| 20260502022703 | 50 | 292 | 1.0 | 3.0 | 0.00 | 0.15 | 0.00 | 91 | 1016.0 |
| 20260502021803 | 50 | 295 | 1.0 | 2.0 | 0.00 | 0.15 | 0.00 | 91 | 1016.0 |
| 20260502020903 | 50 | 291 | 1.0 | 4.0 | 0.00 | 0.15 | 0.00 | 91 | 1016.3 |
| 20260502020003 | 50 | 299 | 1.0 | 4.0 | 0.00 | 0.15 | 0.00 | 91 | 1016.3 |
| 20260502015618 | 50 | 299 | 1.0 | 6.0 | 0.00 | 0.15 | 0.00 | 91 | 1016.3 |
| 20260502014503 | 50 | 311 | 1.0 | 2.0 | 0.00 | 0.15 | 0.00 | 91 | 1016.3 |
| 20260502013603 | 50 | 292 | 1.0 | 2.0 | 0.00 | 0.15 | 0.00 | 90 | 1016.3 |
| 20260502012703 | 50 | 286 | 1.0 | 4.0 | 0.00 | 0.15 | 0.00 | 90 | 1016.7 |
| 20260502011803 | 50 | 279 | 1.0 | 4.0 | 0.00 | 0.15 | 0.00 | 90 | 1016.8 |
| 20260502011117 | 50 | 287 | 1.0 | 3.0 | 0.00 | 0.15 | 0.00 | 90 | 1016.8 |
| 20260502010218 | 50 | 279 | 1.0 | 4.0 | 0.00 | 0.15 | 0.00 | 90 | 1016.9 |